Helicity
-80 49 88 127 136 128 136 152 146 142 113 94 86 62 69 44 58 68 60 53 43 60 68 57 45 51 18 49 28 17 32 29 18 22 27 36 59 57 104 74 67 99 120 139 154 207 227
75 71 133 133 105 127 133 151 163 154 134 112 61 64 78 46 48 42 47 61 57 70 63 45 38 22 27 49 13 27 26 31 34 19 22 29 42 29 77 82 102 114 131 166 283 274 212
102 82 95 159 107 128 137 164 168 146 141 129 99 96 104 76 81 74 48 49 49 71 41 34 29 26 88 47 57 21 35 12 9 2 8 15 20 58 52 96 113 116 148 202 305 281 191
100 121 67 132 161 129 165 163 184 166 147 135 129 112 103 89 80 81 62 62 69 59 33 34 31 27 55 63 30 29 -2 21 38 27 15 10 23 70 86 91 137 149 203 256 254 259 207
82 98 85 112 178 178 178 164 184 183 148 149 140 126 100 119 84 96 72 72 59 35 35 19 57 73 74 31 35 9 -5 -8 -17 47 89 41 62 92 126 101 151 196 175 165 159 217 104
96 95 99 56 114 160 163 129 165 184 161 167 144 133 123 114 94 93 85 74 50 40 25 31 69 87 85 56 13 32 9 22 19 46 71 111 107 117 127 85 133 90 91 78 81 85 131
118 93 105 80 101 174 152 125 155 188 193 169 153 142 133 114 110 93 103 101 82 72 106 96 69 61 53 25 48 43 64 44 45 66 88 129 168 98 60 66 55 52 50 65 96 79 159
95 113 127 60 112 161 175 152 179 230 198 161 144 155 140 127 111 107 115 91 54 42 101 86 67 79 62 31 57 137 29 28 21 38 24 125 152 76 70 86 84 81 102 108 87 81 162
60 118 143 123 112 119 176 187 195 205 200 183 164 167 157 146 125 142 109 51 43 33 81 69 63 78 56 65 49 52 15 -4 13 98 130 105 69 76 84 129 137 103 76 73 70 161 177
64 119 147 146 133 176 162 160 162 224 216 202 183 196 191 150 159 137 70 41 41 40 75 58 76 62 32 17 46 12 16 18 43 53 57 97 60 99 99 65 80 63 77 35 44 98 118
74 76 157 141 124 171 224 177 157 216 193 193 199 198 152 139 110 99 68 54 46 55 107 41 58 21 36 55 30 41 11 47 36 48 37 17 95 113 63 15 -1 13 2 15 43 88 87
8 110 103 142 142 105 162 202 167 226 231 241 230 209 216 196 166 107 77 77 64 116 94 81 59 60 59 69 6 -11 31 52 21 67 61 31 -22 30 53 -30 22 -16 5 39 32 -1 47
72 133 136 151 163 132 157 174 204 217 230 234 229 205 266 207 110 96 99 98 143 116 57 71 71 58 75 52 34 47 66 78 36 30 11 -9 -3 -17 26 32 -8 13 29 35 30 26 -14
48 95 166 143 148 144 130 269 258 221 250 273 333 360 298 189 171 134 145 189 148 90 107 85 88 118 71 45 48 22 13 31 47 31 2 -13 -24 14 -8 -2 -39 -11 8 24 33 42 18
91 121 145 155 147 62 69 172 232 259 360 393 441 463 359 303 233 176 179 184 80 75 87 123 125 101 87 84 59 43 26 24 15 1 -8 -10 -33 -17 7 -8 -7 -44 -5 6 33 38 36
99 93 149 188 128 70 118 230 300 349 395 358 461 384 369 319 224 215 195 139 110 87 111 130 106 88 91 75 69 48 22 0 8 -17 -23 -27 -15 15 12 32 17 25 -8 5 -14 14 2
145 82 104 135 157 54 14 220 337 331 359 361 475 347 321 307 248 285 172 127 125 123 116 104 110 125 93 71 58 41 22 8 1 -3 11 19 12 19 58 59 64 23 33 40 67 59 71
125 104 142 130 167 160 140 241 434 421 454 465 483 311 370 316 349 276 132 127 138 160 165 132 122 86 83 67 54 37 21 14 19 15 7 15 44 71 61 70 79 54 67 74 132 76 106
127 151 167 137 182 159 142 198 227 513 527 516 574 555 396 330 289 228 192 198 140 149 129 125 92 69 67 74 54 43 31 14 30 24 23 23 36 64 64 78 59 75 64 78 94 97 113
146 125 161 129 164 176 158 227 332 481 444 577 612 363 451 317 253 266 287 192 182 153 145 120 99 85 111 96 56 48 43 21 28 26 30 32 55 86 88 88 87 74 92 107 124 158 166
107 110 170 154 181 188 155 183 258 475 407 460 508 415 388 237 189 203 222 117 163 112 101 79 66 71 99 91 83 59 64 61 18 42 15 36 66 69 63 66 89 92 105 128 134 137 183
124 151 144 161 169 152 162 137 225 470 384 526 415 407 373 259 308 289 201 88 132 152 100 75 60 83 95 62 50 79 87 39 11 10 16 28 54 70 72 74 64 88 112 140 139 157 134
142 132 128 156 171 178 208 122 402 420 604 567 572 351 308 246 276 294 173 130 114 180 122 47 126 139 95 29 20 55 55 17 36 32 33 52 52 57 80 58 42 61 99 168 143 156 180
123 114 129 155 173 201 176 235 263 357 534 333 359 291 242 167 166 126 152 209 138 145 115 98 127 110 81 104 139 149 94 64 44 20 51 68 61 54 78 60 85 97 123 134 173 127 172
114 98 109 175 150 204 170 185 312 398 545 257 264 253 186 134 143 174 124 193 239 208 162 112 89 78 88 192 155 103 75 51 -4 20 49 58 73 69 89 106 80 42 90 148 160 119 142
114 68 122 210 186 169 174 204 365 390 249 301 274 168 127 123 54 128 215 194 241 274 239 153 153 196 158 145 110 69 36 37 30 67 86 105 98 96 108 112 107 103 87 126 128 98 59
100 51 166 189 210 162 171 185 247 327 320 407 290 236 135 119 127 139 188 180 234 248 199 177 170 168 133 110 89 63 42 39 44 57 73 102 92 145 169 149 87 93 127 137 161 132 99
53 65 182 204 212 184 194 139 230 344 347 346 329 239 146 151 105 102 157 301 277 226 238 149 236 155 136 81 53 45 51 25 54 61 70 102 114 106 137 150 68 109 148 143 104 98 118
-66 68 150 189 184 174 201 186 292 343 309 360 314 296 221 164 83 123 129 183 238 178 256 255 88 180 73 102 53 63 58 51 66 44 86 81 98 106 133 111 105 116 91 95 120 120 128
Wind_Speed
77 73 70 68 66 60 56 51 47 42 32 25 26 20 12 24 22 28 28 31 36 40 45 51 52 53 41 45 46 51 60 58 56 61 62 59 55 52 55 53 53 50 52 50 50 43 47
83 78 74 71 68 63 58 54 52 45 42 30 23 19 13 15 6 9 26 34 36 40 45 48 50 46 41 48 45 54 59 56 60 60 59 53 50 47 49 51 52 51 53 45 51 44 43
90 84 78 72 72 66 59 56 55 49 46 42 30 25 20 15 15 12 17 32 35 40 43 44 47 41 41 44 46 53 57 55 60 56 55 48 43 47 49 52 49 48 51 45 55 51 50
92 87 83 77 71 66 64 57 56 51 47 44 38 32 24 21 17 13 22 26 35 38 38 42 44 40 42 39 48 56 58 59 62 53 47 43 39 41 48 46 50 51 49 60 59 58 55
92 91 86 80 72 71 64 58 55 53 48 43 38 34 30 26 21 15 23 28 33 36 38 42 37 39 44 40 50 58 59 60 56 49 49 40 41 46 52 53 55 56 63 62 59 64 53
93 92 89 84 78 70 68 63 54 52 47 43 38 33 31 27 21 17 20 28 33 34 37 35 35 37 41 48 48 60 58 54 52 48 45 50 47 52 58 58 69 66 62 59 63 55 52
99 93 91 83 83 79 70 66 57 51 46 43 38 33 29 27 23 21 19 25 34 35 37 39 41 37 38 39 49 60 58 47 50 50 48 53 54 58 54 51 47 51 55 58 54 37 54
100 95 89 88 83 77 72 68 60 54 47 41 37 33 28 25 20 19 27 28 30 27 33 38 35 36 40 40 47 62 55 47 55 55 42 47 55 47 47 53 55 56 55 58 51 39 48
99 97 91 87 86 83 75 72 61 54 49 46 37 32 26 19 18 24 30 32 26 27 35 37 36 39 41 39 44 55 57 47 52 51 51 48 48 48 51 57 63 57 58 62 58 51 47
102 94 94 90 83 81 76 73 64 55 49 44 41 35 28 18 23 24 27 23 22 27 36 40 39 38 37 32 41 52 57 47 46 46 44 48 49 50 54 56 60 62 62 64 53 48 56
103 93 96 91 84 85 76 77 68 58 51 47 41 35 29 22 16 20 26 10 19 28 50 33 33 32 35 38 41 59 54 48 45 46 38 42 50 58 57 58 60 56 68 58 43 37 42
108 92 94 92 88 84 80 81 68 62 57 51 43 36 29 26 23 23 4 8 21 34 44 31 29 29 36 41 44 48 47 43 38 45 46 43 42 49 62 58 49 69 51 51 47 46 54
98 94 93 92 90 86 79 80 75 65 58 51 44 39 30 28 26 12 7 14 32 39 29 30 30 27 34 43 45 46 48 47 42 43 46 47 49 51 63 59 53 70 55 56 59 61 57
103 96 93 92 90 89 77 78 77 69 60 54 46 35 29 29 19 13 17 25 39 35 30 27 25 27 40 39 42 43 40 44 46 42 39 45 50 56 62 60 60 65 60 58 66 67 61
106 101 95 94 91 89 79 77 74 69 65 58 46 37 36 32 27 23 22 34 35 30 23 20 25 35 40 38 36 38 40 37 40 40 38 39 45 47 52 61 61 63 67 50 53 51 54
111 98 98 100 95 93 87 78 73 73 70 64 47 40 40 36 28 25 28 32 29 25 20 18 31 34 37 35 36 35 33 31 34 37 35 36 43 43 45 50 64 63 55 61 59 66 60
115 103 99 102 96 95 87 83 78 78 74 58 45 40 41 35 27 30 27 30 28 23 20 26 32 34 31 32 30 31 26 27 29 33 36 37 40 42 43 53 57 57 63 58 52 53 56
120 107 102 98 97 100 88 87 81 84 75 58 50 49 43 37 29 35 31 27 22 18 23 29 29 27 23 24 27 25 21 26 25 29 37 37 39 43 42 42 41 47 52 55 60 54 47
106 107 106 100 99 96 92 90 84 88 79 62 54 38 39 40 39 30 32 24 22 16 23 26 25 24 21 18 24 20 21 22 25 29 33 33 42 43 42 41 39 43 43 47 44 41 45
107 112 110 104 100 97 96 91 89 95 75 57 47 45 47 47 42 26 21 21 16 23 25 22 22 19 17 19 21 16 17 21 26 30 34 35 39 39 39 36 33 38 39 38 41 44 40
105 112 109 106 103 98 99 95 92 95 80 57 52 46 46 44 41 28 26 12 10 20 23 20 21 16 12 16 16 15 13 18 24 28 32 33 36 33 30 25 28 30 31 32 36 34 37
106 109 107 106 105 101 100 100 103 104 84 58 57 49 46 34 33 28 26 15 10 20 12 16 19 6 8 11 11 7 10 15 23 25 30 32 32 30 39 39 34 29 24 24 27 29 27
112 109 106 105 104 105 105 106 117 99 72 58 50 42 43 39 32 30 26 19 19 15 25 15 5 9 10 12 16 9 12 17 23 24 28 32 31 35 38 33 31 37 35 26 27 27 29
112 109 105 105 106 108 113 106 113 93 63 55 56 44 39 40 32 25 24 19 12 13 16 19 3 8 15 9 12 12 17 20 22 24 27 29 32 34 35 36 43 33 28 28 24 24 22
105 105 104 105 106 107 102 103 108 91 63 52 47 41 38 30 31 27 19 20 12 12 17 13 15 6 12 3 9 17 25 25 18 19 22 25 29 33 33 35 25 30 31 30 31 27 22
103 102 104 105 105 99 97 100 101 88 64 52 39 32 31 28 42 26 19 18 16 15 18 17 12 8 17 19 20 19 18 20 20 22 23 22 26 26 30 36 36 29 28 28 33 33 31
99 101 105 99 102 96 94 98 101 86 66 47 37 33 30 29 27 17 21 19 19 15 14 16 13 25 28 27 24 22 23 20 18 19 20 20 20 13 19 24 20 17 28 33 39 34 29
98 100 102 96 95 90 89 90 91 77 65 54 43 40 31 27 22 29 30 20 18 14 16 11 11 36 34 28 28 24 24 16 20 19 20 18 20 21 24 24 26 26 31 28 23 25 23
98 96 97 93 89 87 86 85 84 69 60 44 43 27 14 24 29 32 29 30 28 13 13 16 20 27 30 25 29 24 24 20 19 24 17 17 15 20 15 17 18 17 18 12 18 19 21
Wind_Direction
244 245 236 237 236 234 234 231 230 229 219 219 240 247 253 276 293 297 311 316 315 318 322 318 322 324 335 330 330 338 336 340 341 339 337 335 334 331 325 326 328 327 330 335 342 350 350
243 242 241 236 235 232 231 230 230 228 231 219 217 227 242 269 329 16 307 303 321 326 320 321 319 328 334 325 340 337 338 340 340 339 338 340 335 337 330 329 327 328 329 334 339 339 344
242 240 239 233 233 231 228 228 228 227 228 232 231 234 246 263 288 325 342 306 317 324 325 327 324 335 339 333 349 343 342 343 340 338 337 342 344 337 332 327 333 331 324 327 339 333 330
240 238 235 237 229 230 228 226 226 225 226 229 232 239 243 255 274 306 313 325 318 324 337 339 337 330 327 348 346 341 339 342 337 343 343 345 351 349 340 337 333 329 329 318 332 334 332
240 236 234 233 229 226 226 223 224 223 223 225 228 235 243 251 267 295 305 316 321 328 336 334 348 338 326 347 340 337 343 340 341 347 356 356 352 347 342 334 327 334 320 323 324 335 330
238 234 232 231 230 224 222 224 220 218 218 220 224 229 238 246 260 285 307 310 326 332 331 343 352 339 343 332 343 338 344 347 347 344 343 346 347 342 342 337 320 324 326 327 326 334 346
237 233 229 227 227 225 221 221 217 214 212 217 217 221 230 241 254 271 300 318 312 320 334 322 323 337 344 350 353 341 347 348 352 351 340 348 343 337 344 348 345 338 333 331 333 339 340
235 231 227 225 224 221 218 217 218 215 206 208 207 213 222 235 248 272 282 303 313 329 330 333 340 346 344 347 339 340 352 353 350 347 351 350 349 354 355 349 343 338 335 334 339 344 340
232 229 225 222 222 219 217 215 215 208 205 206 201 202 208 219 249 273 278 292 314 331 322 327 336 338 340 351 348 343 352 355 350 351 357 353 351 354 353 350 342 342 341 335 331 339 343
228 226 222 220 218 216 214 211 209 205 196 195 199 198 202 206 257 268 279 295 322 327 316 317 323 334 343 359 348 354 353 354 350 349 352 356 357 357 355 349 348 338 344 336 334 334 329
226 227 219 217 214 213 211 207 207 202 192 188 186 184 187 223 256 259 284 316 321 324 296 324 330 345 354 352 348 344 2 9 2 357 1 355 358 356 353 350 351 346 342 345 349 347 344
221 220 217 214 212 211 209 207 204 201 196 192 184 183 185 238 262 266 286 324 315 305 299 319 331 336 340 349 351 353 1 16 22 12 15 8 10 7 360 356 3 349 355 360 1 351 341
217 219 213 211 210 208 207 203 200 196 188 185 182 180 212 237 248 234 251 291 295 294 314 315 322 337 342 339 345 352 358 1 354 351 356 6 5 2 6 4 7 358 358 349 345 345 341
213 214 210 209 209 206 205 198 197 193 186 181 176 188 225 241 238 224 256 282 285 300 302 319 328 339 332 339 343 350 359 357 6 9 9 1 358 3 8 15 7 10 11 358 345 343 344
213 212 210 207 206 203 202 193 191 185 182 176 174 211 224 238 239 243 251 276 290 297 306 312 323 324 328 336 342 349 355 3 7 11 9 14 10 24 31 33 30 20 15 24 9 7 357
210 208 208 206 204 201 200 190 184 179 173 170 195 207 224 240 238 242 259 278 294 303 318 318 315 323 322 330 334 347 359 9 12 12 25 30 17 30 39 37 33 34 34 21 20 6 2
209 207 205 204 201 200 197 194 178 174 169 176 194 212 227 234 233 242 254 278 287 300 315 314 316 320 325 329 339 347 5 10 15 22 33 40 28 33 39 31 30 33 31 32 34 26 13
207 204 202 201 199 198 195 192 184 172 171 187 206 218 225 222 227 249 259 274 291 298 310 316 324 330 334 339 345 351 5 1 32 40 24 40 39 34 37 47 55 51 44 41 28 25 27
204 204 202 200 199 196 192 190 187 174 178 193 206 217 226 225 231 233 260 274 294 300 302 312 318 330 341 356 349 1 2 24 38 41 36 54 36 35 38 46 55 47 52 50 52 48 34
205 202 200 198 197 194 190 189 187 171 181 194 207 212 221 229 243 221 245 265 294 300 299 309 322 336 337 344 353 11 16 21 42 40 49 58 50 47 44 48 53 44 46 53 49 40 37
203 199 198 198 196 193 191 190 186 186 190 202 217 222 220 222 234 231 249 272 271 292 293 300 312 327 342 344 354 358 14 25 27 53 47 64 52 64 63 64 60 53 51 53 45 46 38
201 198 196 196 195 193 192 192 192 193 193 210 216 217 223 240 218 227 247 238 249 278 291 299 315 12 349 355 347 62 46 35 29 58 63 69 61 65 47 51 55 49 55 57 52 48 39
198 196 196 194 193 192 193 191 195 195 201 214 218 218 217 232 224 235 234 237 248 268 288 308 338 318 328 333 328 53 49 48 48 64 63 60 63 50 41 51 47 46 53 59 56 52 43
195 195 194 193 192 192 193 193 194 197 201 210 211 214 226 235 228 224 225 234 204 268 288 300 333 316 301 46 37 1 342 358 22 40 65 61 55 52 44 47 40 53 61 58 58 49 46
193 193 193 191 191 192 193 194 196 198 204 212 208 224 230 237 238 231 226 229 239 285 296 296 290 313 123 323 324 313 306 325 15 80 92 66 53 47 47 40 42 56 59 57 50 40 47
192 191 191 190 190 191 192 194 193 195 204 207 221 227 236 237 240 242 215 192 235 261 277 277 286 203 253 270 289 306 324 337 9 37 44 54 46 53 44 34 37 51 57 67 55 44 51
189 190 190 188 190 191 192 193 194 199 209 214 222 233 238 247 241 213 233 195 247 254 264 250 229 241 257 264 276 297 311 331 21 42 49 60 55 66 49 40 43 57 58 63 40 39 46
188 189 188 187 189 190 191 193 193 200 209 211 221 235 238 252 238 250 254 232 234 230 226 176 234 247 248 259 272 293 312 336 360 30 42 59 55 49 48 41 38 73 59 50 49 42 40
187 189 186 187 188 189 190 191 191 196 199 201 212 228 243 252 252 260 265 252 246 238 222 227 258 233 250 257 273 294 313 336 354 359 29 41 65 45 67 50 61 90 54 72 50 35 31